Welcome to Northern Hawkes Bay. New Zealand.
PWS Header
      nz Flag



Hit Counter


W3C Valid W3C Valid logo


    Wairoa

Select any of the Stations below to visit their websites.










Historic Data from Weather Underground
Select the location of interest below. Wairoa is the default. Please have patience, this Data is slow to load in.
Northern Hawkes Bay Historical Data
Daily Summary for February 18, 2017 Units:  Metric    English   Both
« Previous Day
Next Day »
Daily Weekly Monthly Yearly Custom
  High: Low: Average:
Temperature: 25.9 °C 18.2 °C 20 °C
Dew Point: 20.9 °C 16.8 °C 18.7 °C
Humidity: 99% 70% 92%
Wind Speed: 17.2km/h 0.0km/h 3.2km/h
Wind Gust: 24.5km/h - -
Wind- - SE
Pressure: 1021.9 hPa 1018.2 hPa -
Precipitation: 7.1 mm    
Historical Graphs
 
 
Tabular Data for February 18, 2017
Time Temperature Dew Point Pressure Wind Wind Speed Wind Gust Humidity Rainfall Rate (Hourly) solar
00:01 20.3 °C 17.7 °C 1018.2 hPa North 1.1 km/h 3.5 km/h 85% 0.0 mm 0 W/m2
00:06 19.8 °C 17.4 °C 1018.5 hPa Calm   3.5 km/h 86% 0.0 mm 0 W/m2
00:12 19.5 °C 17.3 °C 1018.5 hPa Calm   2.6 km/h 87% 0.0 mm 0 W/m2
00:17 19.4 °C 17.2 °C 1018.5 hPa Calm   1.1 km/h 87% 0.0 mm 0 W/m2
00:22 19.4 °C 17.4 °C 1018.5 hPa Calm   1.1 km/h 88% 0.0 mm 0 W/m2
00:27 19.4 °C 17.4 °C 1018.5 hPa Calm   1.1 km/h 88% 0.0 mm 0 W/m2
00:32 19.2 °C 17.2 °C 1018.8 hPa Calm   1.1 km/h 88% 0.0 mm 0 W/m2
00:38 19.1 °C 17.1 °C 1018.5 hPa Calm   3.5 km/h 88% 0.0 mm 0 W/m2
00:43 18.9 °C 17.1 °C 1018.5 hPa Calm   3.5 km/h 89% 0.0 mm 0 W/m2
00:48 18.9 °C 17.2 °C 1018.5 hPa Calm   1.1 km/h 90% 0.0 mm 0 W/m2
00:53 18.7 °C 17.1 °C 1018.5 hPa Calm   1.1 km/h 90% 0.0 mm 0 W/m2
00:58 18.6 °C 16.9 °C 1018.5 hPa Calm     90% 0.0 mm 0 W/m2
01:03 18.5 °C 16.8 °C 1018.5 hPa Calm     90% 0.0 mm 0 W/m2
01:08 18.5 °C 17.0 °C 1018.8 hPa Calm     91% 0.0 mm 0 W/m2
01:13 18.5 °C 17.2 °C 1018.5 hPa Calm     92% 0.0 mm 0 W/m2
01:18 18.5 °C 17.2 °C 1018.5 hPa Calm     92% 0.0 mm 0 W/m2
01:23 18.6 °C 17.4 °C 1018.5 hPa Calm     93% 0.0 mm 0 W/m2
01:28 18.6 °C 17.6 °C 1018.5 hPa NW 2.6 km/h 3.5 km/h 94% 0.0 mm 0 W/m2
01:33 18.5 °C 17.6 °C 1018.5 hPa Calm   3.5 km/h 94% 0.0 mm 0 W/m2
01:38 18.5 °C 17.6 °C 1018.8 hPa Calm   3.5 km/h 94% 0.0 mm 0 W/m2
01:43 18.5 °C 17.6 °C 1018.5 hPa Calm   2.6 km/h 94% 0.0 mm 0 W/m2
01:48 18.5 °C 17.6 °C 1018.8 hPa Calm   2.6 km/h 94% 0.0 mm 0 W/m2
01:53 18.5 °C 17.7 °C 1018.5 hPa Calm   1.1 km/h 95% 0.0 mm 0 W/m2
01:58 18.6 °C 17.8 °C 1018.8 hPa Calm   2.6 km/h 95% 0.0 mm 0 W/m2
02:03 18.6 °C 17.8 °C 1018.5 hPa Calm   2.6 km/h 95% 0.0 mm 0 W/m2
02:09 18.7 °C 17.9 °C 1018.5 hPa Calm   1.1 km/h 95% 0.0 mm 0 W/m2
02:14 18.7 °C 18.1 °C 1018.8 hPa Calm   1.1 km/h 96% 0.0 mm 0 W/m2
02:19 18.8 °C 18.2 °C 1018.5 hPa Calm   1.1 km/h 96% 0.0 mm 0 W/m2
02:25 18.9 °C 18.3 °C 1018.8 hPa Calm   1.1 km/h 96% 0.0 mm 0 W/m2
02:30 18.9 °C 18.3 °C 1018.8 hPa Calm     96% 0.0 mm 0 W/m2
02:36 18.9 °C 18.3 °C 1018.5 hPa Calm     96% 0.0 mm 0 W/m2
02:41 19.0 °C 18.2 °C 1018.5 hPa Calm     95% 0.0 mm 0 W/m2
02:46 19.0 °C 18.2 °C 1018.5 hPa Calm   1.1 km/h 95% 0.0 mm 0 W/m2
02:51 19.1 °C 18.3 °C 1018.5 hPa North 1.1 km/h 2.6 km/h 95% 0.0 mm 0 W/m2
02:57 19.1 °C 18.3 °C 1018.5 hPa Calm   2.6 km/h 95% 0.0 mm 0 W/m2
03:02 19.0 °C 18.2 °C 1018.2 hPa Calm   2.6 km/h 95% 0.0 mm 0 W/m2
03:07 18.9 °C 18.3 °C 1018.5 hPa NW 1.1 km/h 2.6 km/h 96% 0.0 mm 0 W/m2
03:12 19.0 °C 18.2 °C 1018.5 hPa Calm   2.6 km/h 95% 0.0 mm 0 W/m2
03:17 19.0 °C 18.2 °C 1018.5 hPa Calm   2.6 km/h 95% 0.0 mm 0 W/m2
03:22 18.9 °C 18.3 °C 1018.5 hPa Calm   1.1 km/h 96% 0.0 mm 0 W/m2
03:28 18.9 °C 18.3 °C 1018.5 hPa Calm   1.1 km/h 96% 0.0 mm 0 W/m2
03:33 18.8 °C 18.2 °C 1018.5 hPa NW 1.1 km/h 2.6 km/h 96% 0.0 mm 0 W/m2
03:38 18.8 °C 18.2 °C 1018.5 hPa Calm   2.6 km/h 96% 0.0 mm 0 W/m2
03:43 18.7 °C 18.1 °C 1018.5 hPa Calm   3.5 km/h 96% 0.0 mm 0 W/m2
03:53 18.7 °C 18.2 °C 1018.5 hPa Calm   2.6 km/h 97% 0.0 mm 0 W/m2
03:58 18.7 °C 18.2 °C 1018.5 hPa Calm   2.6 km/h 97% 0.0 mm 0 W/m2
04:03 18.7 °C 18.2 °C 1018.2 hPa Calm   2.6 km/h 97% 0.0 mm 0 W/m2
04:09 18.7 °C 18.2 °C 1018.5 hPa Calm   2.6 km/h 97% 0.0 mm 0 W/m2
04:14 18.6 °C 18.1 °C 1018.2 hPa Calm   2.6 km/h 97% 0.0 mm 0 W/m2
04:19 18.6 °C 18.1 °C 1018.5 hPa Calm   1.1 km/h 97% 0.0 mm 0 W/m2
04:24 18.6 °C 18.1 °C 1018.5 hPa Calm   1.1 km/h 97% 0.0 mm 0 W/m2
04:29 18.6 °C 18.1 °C 1018.5 hPa Calm   1.1 km/h 97% 0.0 mm 0 W/m2
04:34 18.5 °C 18.2 °C 1018.5 hPa Calm   1.1 km/h 98% 0.0 mm 0 W/m2
04:39 18.4 °C 18.1 °C 1018.5 hPa Calm     98% 0.0 mm 0 W/m2
04:44 18.5 °C 18.2 °C 1018.5 hPa Calm   1.1 km/h 98% 0.0 mm 0 W/m2
04:49 18.5 °C 18.2 °C 1018.5 hPa NE 1.1 km/h 2.6 km/h 98% 0.0 mm 0 W/m2
04:54 18.5 °C 18.2 °C 1018.5 hPa Calm   2.6 km/h 98% 0.0 mm 0 W/m2
04:59 18.5 °C 18.2 °C 1018.2 hPa Calm   2.6 km/h 98% 0.0 mm 0 W/m2
05:04 18.5 °C 18.2 °C 1018.5 hPa Calm   1.1 km/h 98% 0.0 mm 0 W/m2
05:09 18.4 °C 18.1 °C 1018.5 hPa Calm   2.6 km/h 98% 0.0 mm 0 W/m2
05:14 18.4 °C 18.1 °C 1018.5 hPa Calm   2.6 km/h 98% 0.0 mm 0 W/m2
05:19 18.4 °C 18.3 °C 1018.8 hPa Calm   1.1 km/h 99% 0.0 mm 0 W/m2
05:24 18.3 °C 18.2 °C 1018.5 hPa Calm   1.1 km/h 99% 0.0 mm 0 W/m2
05:29 18.3 °C 18.2 °C 1018.8 hPa Calm     99% 0.0 mm 0 W/m2
05:34 18.3 °C 18.2 °C 1018.8 hPa Calm     99% 0.0 mm 0 W/m2
05:40 18.2 °C 18.1 °C 1018.8 hPa Calm     99% 0.0 mm 0 W/m2
05:45 18.3 °C 18.2 °C 1018.8 hPa Calm     99% 0.0 mm 0 W/m2
05:51 18.3 °C 18.2 °C 1018.8 hPa Calm   1.1 km/h 99% 0.0 mm 0 W/m2
05:57 18.3 °C 18.2 °C 1018.8 hPa Calm   1.1 km/h 99% 0.0 mm 0 W/m2
06:02 18.3 °C 18.2 °C 1018.8 hPa Calm   1.1 km/h 99% 0.0 mm 0 W/m2
06:08 18.3 °C 18.2 °C 1018.8 hPa Calm   1.1 km/h 99% 0.0 mm 0 W/m2
06:13 18.3 °C 18.2 °C 1018.8 hPa Calm   1.1 km/h 99% 0.0 mm 0 W/m2
06:18 18.4 °C 18.3 °C 1018.5 hPa South 2.6 km/h 6.1 km/h 99% 0.0 mm 0 W/m2
06:23 18.5 °C 18.3 °C 1018.5 hPa SSE 2.6 km/h 9.7 km/h 99% 0.0 mm 0 W/m2
06:28 18.6 °C 18.4 °C 1018.8 hPa SSE 2.6 km/h 9.7 km/h 99% 0.0 mm 0 W/m2
06:33 18.5 °C 18.3 °C 1019.2 hPa NNW 2.6 km/h 5.0 km/h 99% 0.0 mm 0 W/m2
06:38 18.5 °C 18.3 °C 1019.2 hPa North 2.6 km/h 5.0 km/h 99% 0.0 mm 0 W/m2
06:43 18.5 °C 18.3 °C 1019.2 hPa NNE 1.1 km/h 5.0 km/h 99% 0.0 mm 0 W/m2
06:48 18.6 °C 18.4 °C 1019.2 hPa Calm   2.6 km/h 99% 0.0 mm 1 W/m2
06:53 18.6 °C 18.4 °C 1019.2 hPa Calm   2.6 km/h 99% 0.0 mm 3 W/m2
06:58 18.6 °C 18.4 °C 1019.2 hPa Calm   1.1 km/h 99% 0.0 mm 6 W/m2
07:03 18.6 °C 18.4 °C 1019.2 hPa Calm   1.1 km/h 99% 0.0 mm 10 W/m2
07:08 18.5 °C 18.3 °C 1019.5 hPa Calm   1.1 km/h 99% 0.0 mm 12 W/m2
07:14 18.5 °C 18.3 °C 1019.5 hPa Calm   1.1 km/h 99% 0.0 mm 15 W/m2
07:19 18.6 °C 18.4 °C 1019.2 hPa Calm   1.1 km/h 99% 0.0 mm 18 W/m2
07:24 18.6 °C 18.4 °C 1019.5 hPa Calm   1.1 km/h 99% 0.0 mm 20 W/m2
07:29 18.7 °C 18.6 °C 1019.5 hPa Calm   1.1 km/h 99% 0.0 mm 32 W/m2
07:34 18.8 °C 18.7 °C 1019.2 hPa Calm     99% 0.0 mm 40 W/m2
07:39 18.9 °C 18.8 °C 1019.2 hPa Calm     99% 0.0 mm 43 W/m2
07:44 19.0 °C 18.8 °C 1019.5 hPa Calm   1.1 km/h 99% 0.0 mm 41 W/m2
07:49 19.1 °C 18.9 °C 1019.5 hPa Calm   2.6 km/h 99% 0.0 mm 49 W/m2
07:54 19.2 °C 19.1 °C 1019.5 hPa South 2.6 km/h 5.0 km/h 99% 0.0 mm 60 W/m2
07:59 19.2 °C 19.1 °C 1019.5 hPa Calm   6.1 km/h 99% 0.0 mm 64 W/m2
08:04 19.2 °C 19.1 °C 1019.5 hPa SSW 3.5 km/h 6.1 km/h 99% 0.0 mm 57 W/m2
08:09 19.2 °C 19.1 °C 1019.5 hPa SW 3.5 km/h 9.7 km/h 99% 0.0 mm 57 W/m2
08:14 19.2 °C 19.1 °C 1019.5 hPa SW 3.5 km/h 9.7 km/h 99% 0.0 mm 46 W/m2
08:19 19.2 °C 19.1 °C 1019.9 hPa SW 5.0 km/h 9.7 km/h 99% 0.0 mm 41 W/m2
08:24 19.2 °C 18.9 °C 1019.9 hPa SW 5.0 km/h 9.7 km/h 98% 0.0 mm 49 W/m2
08:29 19.3 °C 19.0 °C 1019.9 hPa SSW 6.1 km/h 11.1 km/h 98% 0.0 mm 60 W/m2
08:34 19.3 °C 19.0 °C 1019.9 hPa SSW 3.5 km/h 14.8 km/h 98% 0.0 mm 61 W/m2
08:39 19.3 °C 18.8 °C 1019.9 hPa SW 3.5 km/h 14.8 km/h 97% 0.0 mm 66 W/m2
08:44 19.4 °C 18.9 °C 1019.9 hPa Calm   8.7 km/h 97% 0.0 mm 71 W/m2
08:49 19.7 °C 19.2 °C 1019.9 hPa Calm   6.1 km/h 97% 0.0 mm 68 W/m2
08:54 19.7 °C 19.2 °C 1020.2 hPa SW 3.5 km/h 6.1 km/h 97% 0.0 mm 60 W/m2
08:59 19.8 °C 19.3 °C 1020.2 hPa WSW 1.1 km/h 6.1 km/h 97% 0.0 mm 85 W/m2
09:04 19.9 °C 19.4 °C 1020.2 hPa Calm   6.1 km/h 97% 0.0 mm 107 W/m2
09:09 20.1 °C 19.4 °C 1020.5 hPa WNW 5.0 km/h 7.2 km/h 96% 0.0 mm 102 W/m2
09:14 20.1 °C 19.3 °C 1020.2 hPa NW 1.1 km/h 7.2 km/h 95% 0.0 mm 87 W/m2
09:19 20.2 °C 19.4 °C 1020.2 hPa NW 1.1 km/h 7.2 km/h 95% 0.0 mm 99 W/m2
09:24 20.2 °C 19.2 °C 1020.2 hPa South 3.5 km/h 6.1 km/h 94% 0.0 mm 101 W/m2
09:29 20.3 °C 19.3 °C 1020.5 hPa South 6.1 km/h 8.7 km/h 94% 0.0 mm 113 W/m2
09:34 20.3 °C 19.2 °C 1020.2 hPa SSW 5.0 km/h 8.7 km/h 93% 0.0 mm 125 W/m2
09:39 20.2 °C 19.1 °C 1020.2 hPa SW 5.0 km/h 13.4 km/h 93% 0.0 mm 119 W/m2
09:44 20.2 °C 19.1 °C 1020.5 hPa SW 7.2 km/h 13.4 km/h 93% 0.0 mm 102 W/m2
09:49 20.1 °C 18.9 °C 1020.2 hPa SW 3.5 km/h 13.4 km/h 93% 0.0 mm 96 W/m2
09:54 20.0 °C 19.0 °C 1020.2 hPa SW 6.1 km/h 12.2 km/h 94% 0.0 mm 117 W/m2
09:59 20.1 °C 19.1 °C 1020.2 hPa WSW 7.2 km/h 11.1 km/h 94% 0.0 mm 187 W/m2
10:04 20.2 °C 19.2 °C 1020.2 hPa WSW 2.6 km/h 11.1 km/h 94% 0.0 mm 198 W/m2
10:10 20.2 °C 19.4 °C 1020.5 hPa SW 5.0 km/h 9.7 km/h 95% 0.0 mm 229 W/m2
10:15 20.5 °C 19.7 °C 1020.5 hPa SW 3.5 km/h 8.7 km/h 95% 0.0 mm 188 W/m2
10:21 20.5 °C 19.5 °C 1020.5 hPa SSW 6.1 km/h 9.7 km/h 94% 0.0 mm 196 W/m2
10:26 20.6 °C 19.6 °C 1020.5 hPa SW 6.1 km/h 9.7 km/h 94% 0.0 mm 256 W/m2
10:31 20.8 °C 19.8 °C 1020.5 hPa SW 2.6 km/h 8.7 km/h 94% 0.0 mm 252 W/m2
10:36 21.1 °C 19.9 °C 1020.5 hPa South 3.5 km/h 8.7 km/h 93% 0.0 mm 301 W/m2
10:38 21.3 °C 20.2 °C 1020.5 hPa SSE 2.6 km/h 8.7 km/h 93% 0.0 mm 300 W/m2
10:43 21.8 °C 20.1 °C 1020.5 hPa SSE 3.5 km/h 8.7 km/h 90% 0.0 mm 302 W/m2
10:48 21.7 °C 19.4 °C 1020.5 hPa SSW 3.5 km/h 8.7 km/h 87% 0.0 mm 304 W/m2
10:53 21.6 °C 19.4 °C 1020.5 hPa SSW 3.5 km/h 8.7 km/h 87% 0.0 mm 269 W/m2
10:58 21.6 °C 19.4 °C 1020.5 hPa South 8.7 km/h 12.2 km/h 87% 0.0 mm 243 W/m2
11:03 21.3 °C 19.3 °C 1020.5 hPa SSW 6.1 km/h 12.2 km/h 88% 0.0 mm 247 W/m2
11:08 21.3 °C 19.4 °C 1020.5 hPa SW 3.5 km/h 11.1 km/h 89% 0.0 mm 426 W/m2
11:13 22.1 °C 19.8 °C 1020.5 hPa SSW 7.2 km/h 11.1 km/h 87% 0.0 mm 370 W/m2
11:18 22.1 °C 19.3 °C 1020.5 hPa South 6.1 km/h 11.1 km/h 84% 0.0 mm 371 W/m2
11:23 22.4 °C 19.8 °C 1020.5 hPa SSW 6.1 km/h 11.1 km/h 85% 0.0 mm 749 W/m2
11:29 23.0 °C 20.4 °C 1020.2 hPa SSW 3.5 km/h 11.1 km/h 85% 0.0 mm 875 W/m2
11:35 24.4 °C 20.7 °C 1020.5 hPa South 1.1 km/h 11.1 km/h 80% 0.0 mm 784 W/m2
11:40 25.4 °C 20.9 °C 1020.5 hPa SE 6.1 km/h 7.2 km/h 76% 0.0 mm 770 W/m2
11:46 25.9 °C 20.1 °C 1020.5 hPa ESE 2.6 km/h 7.2 km/h 70% 0.0 mm 408 W/m2
11:51 25.4 °C 19.6 °C 1020.5 hPa East 6.1 km/h 8.7 km/h 70% 0.0 mm 274 W/m2
11:56 24.5 °C 19.4 °C 1020.5 hPa East 5.0 km/h 8.7 km/h 73% 0.0 mm 203 W/m2
12:01 23.2 °C 19.2 °C 1020.5 hPa ESE 6.1 km/h 18.3 km/h 78% 0.0 mm 164 W/m2
12:06 22.6 °C 19.4 °C 1020.5 hPa ESE 2.6 km/h 18.3 km/h 82% 0.0 mm 295 W/m2
12:11 22.6 °C 19.6 °C 1020.5 hPa ESE 3.5 km/h 14.8 km/h 83% 0.0 mm 450 W/m2
12:16 23.1 °C 20.4 °C 1020.5 hPa ESE 5.0 km/h 11.1 km/h 85% 0.0 mm 599 W/m2
12:21 23.5 °C 20.3 °C 1020.5 hPa ESE 1.1 km/h 9.7 km/h 82% 0.0 mm 546 W/m2
12:26 24.2 °C 20.3 °C 1020.5 hPa ESE 2.6 km/h 9.7 km/h 79% 0.0 mm 430 W/m2
12:32 24.5 °C 20.0 °C 1020.2 hPa ESE 5.0 km/h 9.7 km/h 76% 0.0 mm 467 W/m2
12:38 24.6 °C 20.1 °C 1020.2 hPa East 2.6 km/h 9.7 km/h 76% 0.0 mm 334 W/m2
12:43 24.4 °C 19.9 °C 1020.2 hPa ESE 5.0 km/h 9.7 km/h 76% 0.0 mm 333 W/m2
12:48 24.0 °C 19.7 °C 1020.2 hPa ESE 2.6 km/h 12.2 km/h 77% 0.0 mm 314 W/m2
12:53 23.5 °C 19.7 °C 1020.2 hPa ESE 5.0 km/h 12.2 km/h 79% 0.0 mm 365 W/m2
12:58 23.7 °C 20.1 °C 1019.9 hPa ESE 6.1 km/h 12.2 km/h 80% 0.0 mm 488 W/m2
13:03 23.5 °C 20.1 °C 1019.9 hPa ESE 6.1 km/h 15.8 km/h 81% 0.0 mm 565 W/m2
13:08 24.0 °C 20.3 °C 1019.5 hPa East 7.2 km/h 15.8 km/h 80% 0.0 mm 634 W/m2
13:13 24.1 °C 20.1 °C 1019.9 hPa East 6.1 km/h 17.2 km/h 78% 0.0 mm 452 W/m2
13:18 24.6 °C 20.3 °C 1020.2 hPa ESE 8.7 km/h 17.2 km/h 77% 0.0 mm 488 W/m2
13:23 24.3 °C 19.8 °C 1019.9 hPa ESE 8.7 km/h 18.3 km/h 76% 0.0 mm 746 W/m2
13:28 24.2 °C 19.7 °C 1020.2 hPa East 14.8 km/h 24.5 km/h 76% 0.0 mm 848 W/m2
13:33 23.7 °C 19.4 °C 1020.5 hPa East 11.1 km/h 24.5 km/h 77% 0.0 mm 1261 W/m2
13:38 23.8 °C 19.8 °C 1020.5 hPa East 9.7 km/h 24.5 km/h 78% 0.0 mm 526 W/m2
13:43 23.4 °C 19.6 °C 1020.5 hPa ESE 11.1 km/h 24.5 km/h 79% 0.0 mm 1113 W/m2
13:48 23.9 °C 20.1 °C 1020.2 hPa ESE 8.7 km/h 24.5 km/h 79% 0.0 mm 431 W/m2
13:53 23.5 °C 19.4 °C 1020.2 hPa East 13.4 km/h 19.5 km/h 78% 0.0 mm 412 W/m2
14:11 22.6 °C 19.2 °C 1020.2 hPa ESE 13.4 km/h 24.5 km/h 81% 0.0 mm 428 W/m2
14:16 22.3 °C 18.9 °C 1020.2 hPa ESE 9.7 km/h 24.5 km/h 81% 0.0 mm 318 W/m2
14:21 22.1 °C 18.9 °C 1020.5 hPa SE 7.2 km/h 23.3 km/h 82% 0.0 mm 295 W/m2
14:26 21.8 °C 19.0 °C 1020.2 hPa ESE 11.1 km/h 23.3 km/h 84% 0.0 mm 253 W/m2
14:32 21.5 °C 19.1 °C 1020.2 hPa ESE 8.7 km/h 23.3 km/h 86% 0.0 mm 194 W/m2
14:37 21.4 °C 19.0 °C 1020.2 hPa SE 6.1 km/h 19.5 km/h 86% 0.0 mm 171 W/m2
14:42 21.4 °C 19.2 °C 1019.9 hPa ESE 7.2 km/h 18.3 km/h 87% 0.0 mm 182 W/m2
14:47 21.5 °C 19.1 °C 1019.9 hPa East 9.7 km/h 18.3 km/h 86% 0.0 mm 255 W/m2
14:52 21.7 °C 19.3 °C 1019.9 hPa East 9.7 km/h 21.9 km/h 86% 0.0 mm 292 W/m2
14:57 21.8 °C 19.4 °C 1019.5 hPa ESE 9.7 km/h 21.9 km/h 86% 0.0 mm 260 W/m2
15:02 21.8 °C 19.4 °C 1019.9 hPa ESE 15.8 km/h 20.9 km/h 86% 0.0 mm 239 W/m2
15:07 21.6 °C 19.4 °C 1019.9 hPa ESE 6.1 km/h 20.9 km/h 87% 0.0 mm 208 W/m2
15:12 21.4 °C 19.2 °C 1019.5 hPa ESE 2.6 km/h 15.8 km/h 87% 0.0 mm 185 W/m2
15:17 21.3 °C 19.3 °C 1019.9 hPa ESE 7.2 km/h 17.2 km/h 88% 0.0 mm 186 W/m2
15:22 21.3 °C 19.3 °C 1019.9 hPa ESE 8.7 km/h 17.2 km/h 88% 0.0 mm 153 W/m2
15:27 21.3 °C 19.4 °C 1019.9 hPa East 8.7 km/h 15.8 km/h 89% 0.0 mm 128 W/m2
15:32 21.1 °C 19.1 °C 1019.9 hPa ESE 7.2 km/h 17.2 km/h 88% 0.0 mm 96 W/m2
15:38 20.9 °C 19.2 °C 1019.9 hPa ESE 5.0 km/h 19.5 km/h 90% 0.0 mm 79 W/m2
15:43 20.8 °C 19.3 °C 1019.9 hPa ESE 15.8 km/h 21.9 km/h 91% 0.3 mm 93 W/m2
15:48 20.9 °C 19.4 °C 1020.2 hPa ESE 17.2 km/h 23.3 km/h 91% 0.3 mm 77 W/m2
15:53 21.0 °C 19.1 °C 1020.2 hPa East 11.1 km/h 23.3 km/h 89% 0.5 mm 105 W/m2
15:58 21.0 °C 18.9 °C 1019.9 hPa East 3.5 km/h 23.3 km/h 88% 1.3 mm 207 W/m2
16:03 21.1 °C 19.2 °C 1020.2 hPa ESE 8.7 km/h 21.9 km/h 89% 1.5 mm 250 W/m2
16:08 21.2 °C 19.3 °C 1020.2 hPa ESE 3.5 km/h 12.2 km/h 89% 1.8 mm 293 W/m2
16:13 21.4 °C 19.3 °C 1019.9 hPa East 3.5 km/h 17.2 km/h 88% 1.8 mm 341 W/m2
16:18 21.8 °C 19.9 °C 1019.9 hPa ESE 6.1 km/h 17.2 km/h 89% 1.8 mm 346 W/m2
16:23 22.1 °C 19.7 °C 1019.9 hPa ESE 3.5 km/h 12.2 km/h 86% 1.8 mm 278 W/m2
16:29 22.1 °C 19.3 °C 1019.9 hPa ESE 9.7 km/h 14.8 km/h 84% 1.8 mm 227 W/m2
16:34 22.1 °C 19.3 °C 1019.9 hPa ESE 3.5 km/h 14.8 km/h 84% 1.8 mm 244 W/m2
16:39 22.1 °C 19.1 °C 1019.5 hPa SE 1.1 km/h 18.3 km/h 83% 1.8 mm 226 W/m2
16:44 22.1 °C 19.1 °C 1019.9 hPa East 12.2 km/h 18.3 km/h 83% 1.5 mm 217 W/m2
16:49 22.2 °C 19.2 °C 1019.5 hPa East 3.5 km/h 18.3 km/h 83% 1.5 mm 212 W/m2
16:54 22.3 °C 19.3 °C 1019.5 hPa ESE 5.0 km/h 14.8 km/h 83% 1.0 mm 206 W/m2
16:59 22.2 °C 19.2 °C 1019.5 hPa ESE 7.2 km/h 15.8 km/h 83% 0.5 mm 175 W/m2
17:05 22.0 °C 18.8 °C 1019.9 hPa East 9.7 km/h 19.5 km/h 82% 0.3 mm 105 W/m2
17:10 21.9 °C 18.9 °C 1019.5 hPa East 8.7 km/h 19.5 km/h 83% 0.0 mm 83 W/m2
17:15 21.7 °C 18.7 °C 1019.5 hPa East 7.2 km/h 15.8 km/h 83% 0.0 mm 73 W/m2
17:20 21.7 °C 18.5 °C 1019.5 hPa East 7.2 km/h 15.8 km/h 82% 0.0 mm 59 W/m2
17:25 21.5 °C 18.3 °C 1019.5 hPa East 13.4 km/h 18.3 km/h 82% 0.0 mm 43 W/m2
17:30 21.4 °C 18.2 °C 1019.9 hPa East 9.7 km/h 19.5 km/h 82% 0.0 mm 26 W/m2
17:36 21.2 °C 18.2 °C 1020.2 hPa ENE 6.1 km/h 17.2 km/h 83% 0.3 mm 20 W/m2
17:41 21.1 °C 18.3 °C 1020.2 hPa ENE 2.6 km/h 14.8 km/h 84% 0.3 mm 14 W/m2
17:46 20.9 °C 18.3 °C 1020.2 hPa ENE 5.0 km/h 11.1 km/h 85% 0.3 mm 14 W/m2
17:52 20.9 °C 18.5 °C 1020.2 hPa East 2.6 km/h 11.1 km/h 86% 0.5 mm 14 W/m2
17:57 20.7 °C 18.3 °C 1020.2 hPa East 7.2 km/h 12.2 km/h 86% 1.0 mm 14 W/m2
18:02 20.4 °C 18.2 °C 1020.2 hPa East 3.5 km/h 14.8 km/h 87% 1.3 mm 18 W/m2
18:07 20.3 °C 18.3 °C 1020.2 hPa ESE 2.6 km/h 14.8 km/h 88% 1.5 mm 21 W/m2
18:12 20.1 °C 18.2 °C 1020.2 hPa ESE 2.6 km/h 11.1 km/h 89% 1.8 mm 22 W/m2
18:17 20.0 °C 18.3 °C 1020.2 hPa ESE 5.0 km/h 11.1 km/h 90% 1.8 mm 23 W/m2
18:22 19.9 °C 18.6 °C 1020.2 hPa ESE 7.2 km/h 11.1 km/h 92% 2.0 mm 27 W/m2
18:27 19.8 °C 18.5 °C 1020.2 hPa East 9.7 km/h 19.5 km/h 92% 2.0 mm 36 W/m2
18:32 19.9 °C 18.4 °C 1020.2 hPa East 8.7 km/h 19.5 km/h 91% 2.3 mm 51 W/m2
18:38 19.9 °C 18.4 °C 1020.2 hPa East 5.0 km/h 18.3 km/h 91% 2.3 mm 88 W/m2
18:43 19.9 °C 18.4 °C 1020.5 hPa East 2.6 km/h 15.8 km/h 91% 2.3 mm 111 W/m2
18:48 20.0 °C 18.3 °C 1020.5 hPa ESE 2.6 km/h 11.1 km/h 90% 2.3 mm 94 W/m2
18:53 19.9 °C 18.4 °C 1020.5 hPa ESE 5.0 km/h 8.7 km/h 91% 2.3 mm 64 W/m2
18:58 19.8 °C 18.5 °C 1020.5 hPa ESE 1.1 km/h 8.7 km/h 92% 2.3 mm 46 W/m2
19:03 19.8 °C 18.7 °C 1020.5 hPa Calm   7.2 km/h 93% 1.8 mm 40 W/m2
19:08 19.7 °C 18.6 °C 1020.9 hPa Calm   5.0 km/h 93% 1.8 mm 26 W/m2
19:13 19.6 °C 18.6 °C 1020.5 hPa SSE 2.6 km/h 5.0 km/h 94% 1.5 mm 25 W/m2
19:18 19.5 °C 18.5 °C 1020.9 hPa SE 1.1 km/h 5.0 km/h 94% 1.8 mm 21 W/m2
19:23 19.4 °C 18.6 °C 1020.5 hPa SE 1.1 km/h 5.0 km/h 95% 1.5 mm 18 W/m2
19:28 19.3 °C 18.5 °C 1020.5 hPa SE 2.6 km/h 5.0 km/h 95% 1.3 mm 21 W/m2
19:33 19.2 °C 18.4 °C 1020.9 hPa SE 1.1 km/h 5.0 km/h 95% 1.5 mm 20 W/m2
19:38 19.2 °C 18.6 °C 1020.5 hPa ESE 7.2 km/h 9.7 km/h 96% 1.3 mm 18 W/m2
19:43 19.1 °C 18.4 °C 1020.9 hPa East 2.6 km/h 9.7 km/h 96% 1.3 mm 14 W/m2
19:48 19.1 °C 18.4 °C 1020.9 hPa East 2.6 km/h 8.7 km/h 96% 1.3 mm 7 W/m2
19:53 19.1 °C 18.4 °C 1020.9 hPa Calm   6.1 km/h 96% 1.3 mm 3 W/m2
19:58 19.0 °C 18.4 °C 1020.9 hPa East 2.6 km/h 7.2 km/h 96% 1.3 mm 1 W/m2
20:03 19.0 °C 18.4 °C 1020.9 hPa Calm   7.2 km/h 96% 1.3 mm 0 W/m2
20:08 18.9 °C 18.4 °C 1020.9 hPa Calm   5.0 km/h 97% 1.3 mm 0 W/m2
20:13 18.9 °C 18.4 °C 1020.9 hPa Calm   1.1 km/h 97% 1.3 mm 0 W/m2
20:18 18.9 °C 18.4 °C 1021.2 hPa Calm   2.6 km/h 97% 1.3 mm 0 W/m2
20:23 18.8 °C 18.3 °C 1020.9 hPa Calm   2.6 km/h 97% 1.3 mm 0 W/m2
20:28 18.8 °C 18.5 °C 1021.2 hPa SE 2.6 km/h 3.5 km/h 98% 1.0 mm 0 W/m2
20:33 18.7 °C 18.4 °C 1021.2 hPa Calm   3.5 km/h 98% 1.0 mm 0 W/m2
20:38 18.7 °C 18.4 °C 1021.2 hPa SSE 1.1 km/h 5.0 km/h 98% 1.0 mm 0 W/m2
20:57 18.6 °C 18.4 °C 1021.2 hPa ESE 6.1 km/h 7.2 km/h 99% 0.3 mm 0 W/m2
21:02 18.5 °C 18.3 °C 1021.6 hPa East 5.0 km/h 8.7 km/h 99% 0.3 mm 0 W/m2
21:07 18.6 °C 18.4 °C 1021.6 hPa East 2.6 km/h 9.7 km/h 99% 0.3 mm 0 W/m2
21:12 18.6 °C 18.4 °C 1021.6 hPa East 5.0 km/h 9.7 km/h 99% 0.3 mm 0 W/m2
21:17 18.6 °C 18.3 °C 1021.6 hPa East 2.6 km/h 8.7 km/h 98% 0.3 mm 0 W/m2
21:22 18.6 °C 18.3 °C 1021.6 hPa East 2.6 km/h 7.2 km/h 98% 0.3 mm 0 W/m2
21:27 18.6 °C 18.3 °C 1021.6 hPa East 1.1 km/h 5.0 km/h 98% 0.3 mm 0 W/m2
21:32 18.6 °C 18.3 °C 1021.6 hPa Calm   3.5 km/h 98% 0.3 mm 0 W/m2
21:37 18.6 °C 18.3 °C 1021.6 hPa East 5.0 km/h 7.2 km/h 98% 0.3 mm 0 W/m2
21:42 18.6 °C 18.3 °C 1021.9 hPa East 5.0 km/h 7.2 km/h 98% 0.3 mm 0 W/m2
21:47 18.6 °C 18.3 °C 1021.9 hPa East 5.0 km/h 8.7 km/h 98% 0.3 mm 0 W/m2
21:52 18.6 °C 18.3 °C 1021.9 hPa East 6.1 km/h 8.7 km/h 98% 0.3 mm 0 W/m2
21:57 18.6 °C 18.3 °C 1021.9 hPa East 2.6 km/h 8.7 km/h 98% 0.3 mm 0 W/m2
22:02 18.6 °C 18.3 °C 1021.9 hPa East 3.5 km/h 8.7 km/h 98% 0.3 mm 0 W/m2
22:07 18.7 °C 18.2 °C 1021.9 hPa ESE 6.1 km/h 8.7 km/h 97% 0.3 mm 0 W/m2
22:12 18.7 °C 18.2 °C 1021.6 hPa ESE 2.6 km/h 8.7 km/h 97% 0.3 mm 0 W/m2
22:17 18.7 °C 18.2 °C 1021.9 hPa SE 2.6 km/h 8.7 km/h 97% 0.0 mm 0 W/m2
22:23 18.7 °C 18.2 °C 1021.9 hPa SE 2.6 km/h 6.1 km/h 97% 0.0 mm 0 W/m2
22:28 18.6 °C 18.1 °C 1021.9 hPa SE 2.6 km/h 5.0 km/h 97% 0.0 mm 0 W/m2
22:33 18.6 °C 18.1 °C 1021.9 hPa ESE 1.1 km/h 6.1 km/h 97% 0.0 mm 0 W/m2
22:38 18.7 °C 18.2 °C 1021.9 hPa ESE 3.5 km/h 6.1 km/h 97% 0.0 mm 0 W/m2
22:43 18.7 °C 18.2 °C 1021.9 hPa ESE 5.0 km/h 7.2 km/h 97% 0.0 mm 0 W/m2
22:48 18.6 °C 18.1 °C 1021.9 hPa ESE 2.6 km/h 7.2 km/h 97% 0.0 mm 0 W/m2
22:53 18.6 °C 18.1 °C 1021.9 hPa East 3.5 km/h 8.7 km/h 97% 0.0 mm 0 W/m2
22:59 18.6 °C 18.1 °C 1021.9 hPa East 5.0 km/h 8.7 km/h 97% 0.0 mm 0 W/m2
23:04 18.7 °C 18.2 °C 1021.9 hPa Calm   8.7 km/h 97% 0.0 mm 0 W/m2
23:09 18.6 °C 18.1 °C 1021.9 hPa Calm   7.2 km/h 97% 0.0 mm 0 W/m2
23:14 18.6 °C 18.1 °C 1021.9 hPa Calm   5.0 km/h 97% 0.0 mm 0 W/m2
23:19 18.6 °C 18.1 °C 1021.9 hPa Calm   2.6 km/h 97% 0.0 mm 0 W/m2
23:24 18.6 °C 18.1 °C 1021.9 hPa NE 1.1 km/h 2.6 km/h 97% 0.3 mm 0 W/m2
23:29 18.5 °C 18.1 °C 1021.9 hPa Calm   2.6 km/h 97% 0.3 mm 0 W/m2
23:35 18.5 °C 18.1 °C 1021.9 hPa Calm   1.1 km/h 97% 0.3 mm 0 W/m2
23:40 18.4 °C 17.9 °C 1021.9 hPa Calm     97% 0.3 mm 0 W/m2
23:46 18.4 °C 17.9 °C 1021.9 hPa Calm     97% 0.3 mm 0 W/m2
23:51 18.4 °C 17.9 °C 1021.9 hPa Calm     97% 0.3 mm 0 W/m2
23:56 18.4 °C 17.9 °C 1021.9 hPa Calm     97% 0.3 mm 0 W/m2
Northern Hawkes Bay. New Zealand Historic Data
Compliments of Weather Underground - 2.25 mb